TimeMST,TemperatureF,Dew PointF,Humidity,Sea Level PressureIn,VisibilityMPH,Wind Direction,Wind SpeedMPH,Gust SpeedMPH,PrecipitationIn,Events,Conditions,WindDirDegrees,DateUTC
12:53 AM,26.1,19.0,75,29.99,10.0,Calm,Calm,-,N/A,,Mostly Cloudy,0,2012-12-08 07:53:00
1:53 AM,28.0,19.9,72,29.96,10.0,SSE,3.5,-,N/A,,Overcast,160,2012-12-08 08:53:00
2:53 AM,30.9,21.0,67,29.94,10.0,Calm,Calm,-,N/A,,Overcast,0,2012-12-08 09:53:00
3:53 AM,32.0,21.2,64,29.87,10.0,South,5.8,-,N/A,,Scattered Clouds,180,2012-12-08 10:53:00
4:53 AM,32.0,21.0,64,29.93,10.0,SSW,10.4,-,N/A,,Mostly Cloudy,210,2012-12-08 11:53:00
5:53 AM,30.9,19.9,64,29.93,10.0,SSW,8.1,-,N/A,,Overcast,210,2012-12-08 12:53:00
6:53 AM,30.0,19.9,66,29.91,10.0,SSW,11.5,-,N/A,,Overcast,200,2012-12-08 13:53:00
7:53 AM,32.0,19.9,61,29.89,10.0,SSW,15.0,-,N/A,,Overcast,200,2012-12-08 14:53:00
8:53 AM,34.0,19.9,56,29.89,10.0,South,8.1,-,N/A,,Overcast,190,2012-12-08 15:53:00
9:53 AM,37.9,19.9,48,29.88,10.0,South,8.1,-,N/A,,Overcast,180,2012-12-08 16:53:00
10:53 AM,42.1,21.0,43,29.83,10.0,South,13.8,-,N/A,,Overcast,170,2012-12-08 17:53:00
11:53 AM,48.0,23.0,37,29.76,10.0,South,23.0,29.9,N/A,,Scattered Clouds,190,2012-12-08 18:53:00
12:53 PM,51.1,21.0,31,29.70,10.0,South,20.7,29.9,N/A,,Scattered Clouds,180,2012-12-08 19:53:00
1:53 PM,50.0,24.1,36,29.71,10.0,WSW,8.1,-,N/A,,Overcast,240,2012-12-08 20:53:00
2:53 PM,46.9,27.0,46,29.72,10.0,North,10.4,-,0.00,,Scattered Clouds,360,2012-12-08 21:53:00
3:53 PM,44.1,26.1,49,29.76,10.0,NNW,13.8,24.2,0.00,Rain,Light Rain,330,2012-12-08 22:53:00
4:53 PM,46.0,14.0,28,29.77,10.0,WNW,11.5,-,0.00,,Overcast,300,2012-12-08 23:53:00
5:53 PM,44.1,18.0,35,29.82,10.0,NW,19.6,28.8,N/A,,Overcast,310,2012-12-09 00:53:00
6:53 PM,41.0,18.0,40,29.82,10.0,West,9.2,-,N/A,,Overcast,280,2012-12-09 01:53:00
7:53 PM,39.0,25.0,57,29.86,10.0,NW,18.4,24.2,N/A,,Overcast,320,2012-12-09 02:53:00
8:53 PM,36.0,21.9,57,29.91,10.0,NNW,17.3,-,N/A,,Overcast,330,2012-12-09 03:53:00
9:53 PM,35.1,18.0,50,29.96,10.0,NW,13.8,-,N/A,,Overcast,310,2012-12-09 04:53:00
10:53 PM,32.0,16.0,52,29.95,10.0,NNW,19.6,28.8,N/A,,Overcast,330,2012-12-09 05:53:00
11:53 PM,30.9,17.1,57,29.95,10.0,NW,15.0,23.0,N/A,,Overcast,320,2012-12-09 06:53:00